Regional Weather Roundup
Issued by NWS

Home | Current Version | Previous Version | Text Only | Print | Product List | Glossary On
Versions: 1 2 3 4 5 6 7 8 9 10 11 12 13 14 15 16 17 18 19 20 21 22 23 24 25 26 27 28 29 30 31 32 33 34 35 36 37 38 39 40 41 42 43 44 45 46 47 48 49 50
000
ASUS43 KMKX 242124
RWRWI

WISCONSIN REGIONAL WEATHER ROUNDUP
NATIONAL WEATHER SERVICE MILWAUKEE/SULLIVAN WI
400 PM CDT SUN MAY 24 2015

NOTE: "FAIR" INDICATES FEW OR NO CLOUDS BELOW 12,000 FEET WITH NO
SIGNIFICANT WEATHER AND/OR OBSTRUCTIONS TO VISIBILITY.

WIZ001-002-006>008-014>016-023>028-242200-
NORTHWEST WISCONSIN

CITY           SKY/WX    TMP DP  RH WIND       PRES   REMARKS
SUPERIOR ARPT  CLOUDY    66  44  45 NE7       29.97F
ASHLAND        CLOUDY    72  49  44 N9        29.99F
HAYWARD        LGT RAIN  64  55  72 S7        30.01F
SIREN          DRIZZLE   64  55  73 SE8       30.00S
CUMBERLAND     LGT RAIN  59  55  88 E6        29.99F
RICE LAKE      LGT RAIN  60  57  88 E7        30.01F
CHETEK         LGT RAIN  60  58  94 E7        29.99F
LADYSMITH      LGT RAIN  62  57  86 E9        30.03F
EAU CLAIRE     LGT RAIN  60  57  89 E12       29.96F
MENOMONIE      DRIZZLE   60  58  93 E13       29.97F
NEW RICHMOND   LGT RAIN  59  58  97 E8        29.96F
OSCEOLA        RAIN      60  60 100 E6        29.99F
$$

WIZ003>005-009-010-017-018-242200-
NORTH CENTRAL WISCONSIN

CITY           SKY/WX    TMP DP  RH WIND       PRES   REMARKS
MANITOWISH WTR CLOUDY    70  50  48 S10       30.02F
ARBOR VITAE    CLOUDY    67  53  60 SW15      30.04S
WOODRUFF       CLOUDY    67  53  60 SW15      30.04S
RHINELANDER    LGT RAIN  62  55  77 S8        30.07F
EAGLE RIVER    CLOUDY    70  48  45 S9        30.04S
LAND O LAKES   CLOUDY    75  43  31 S8        30.03F
PHILLIPS       DRIZZLE   61  56  82 SE7       30.03F
TOMAHAWK       RAIN      59  56  89 CALM      30.06F
MEDFORD        DRIZZLE   57  55  93 SE7       30.03F
MERRILL        LGT RAIN  59  58  96 SE5       30.06F
$$

WIZ029-030-035-036-043>047-242200-
CENTRAL WISCONSIN

CITY           SKY/WX    TMP DP  RH WIND       PRES   REMARKS
WAUSAU         LGT RAIN  59  56  89 SE9       30.04F
MOSINEE        DRIZZLE   57  57 100 E8        30.06F
MARSHFIELD     LGT RAIN  60  56  86 SE14G21   30.01F
STEVENS POINT  LGT RAIN  57  55  93 E10G16    30.05F
WAUPACA        LGT RAIN  62  59  89 E8        30.06F
WAUTOMA        HVY RAIN  59  59 100 E7        30.05F FOG
WISC RAPIDS    RAIN      58  55  90 SE10      30.04F FOG
CAMP DOUGLAS   LGT RAIN  57  57 100 E10       29.99F FOG
$$

WIZ011>013-019>022-031-037>040-048>050-242200-
NORTHEAST WISCONSIN

CITY           SKY/WX    TMP DP  RH WIND       PRES   REMARKS
ANTIGO         LGT RAIN  58  56  91 S9        30.08F
SHAWANO        LGT RAIN  62  57  84 S5        30.08F
OCONTO         CLOUDY    62  56  82 S8        30.08F
STURGEON BAY   CLOUDY    63  52  67 S10       30.11F
GREEN BAY      LGT RAIN  63  58  83 SE9       30.08F
MANITOWOC      LGT RAIN  57  55  93 SE7       30.10F
APPLETON       LGT RAIN  61  57  88 SE8       30.07F
CLINTONVILLE   RAIN      61  55  82 SE5       30.07F
OSHKOSH        LGT RAIN  60  56  86 E8        30.05F FOG
$$

WIZ032>034-041-042-053>061-242200-
SOUTHWEST WISCONSIN

CITY           SKY/WX    TMP DP  RH WIND       PRES   REMARKS
LA CROSSE      LGT RAIN  61  57  87 SE9       29.94F
SPARTA         RAIN      58  56  94 E10       29.98F
VIROQUA        CLOUDY    57  57 100 E18       29.95F
BOSCOBEL       LGT RAIN  61  58  90 VRB3      29.97F FOG
PRAIRIE DU CHI CLOUDY    60  57  91 E10G17    29.93F
PLATTEVILLE    CLOUDY    60  59  96 E6        29.95F
$$

WIZ056-057-062-063-064-067-068-242200-
SOUTH CENTRAL WISCONSIN

CITY           SKY/WX    TMP DP  RH WIND       PRES   REMARKS
REEDSBURG      LGT RAIN  57  56  96 E7        30.00S
BARABOO/DELLS  LGT RAIN  57  55  92 E8G17     30.01F
LONE ROCK      RAIN      59  57  93 E10       29.99F FOG
MINERAL POINT  LGT RAIN  59  57  94 E9G18     29.96F
MADISON        RAIN      59  56  89 E13       30.00F FOG
MIDDLETON      CLOUDY    60  57  91 E8        30.00F
WATERTOWN      LGT RAIN  58  58 100 E9        30.04R
MONROE         CLOUDY    61  59  94 E9        29.97F FOG
JANESVILLE     CLOUDY    64  57  77 E14       30.00F
$$

WIZ051-052-058>065-066-070>072-242200-
SOUTHEAST WISCONSIN

CITY           SKY/WX    TMP DP  RH WIND       PRES   REMARKS
MILWAUKEE      CLOUDY    53  47  79 E10       30.05F
WAUKESHA       LGT RAIN  57  52  82 E12       30.06F FOG
MILWAUKEE/TIMM LGT RAIN  57  52  82 NE9       30.06F
RACINE         LGT RAIN  56  48  74 E12       30.06F
BURLINGTON     RAIN      57  52  82 E7        30.05R
KENOSHA        LGT RAIN  58  52  80 E13       30.04F
FOND DU LAC    RAIN      60  56  86 SE12      30.05F FOG
SHEBOYGAN      LGT RAIN  59  56  89 E7        30.09F FOG
WEST BEND      RAIN      59  54  82 E9        30.06F
JUNEAU         RAIN      58  55  91 E10       30.06S
$$

LSZ147-162-242200-
LAKE SUPERIOR

STATION/POSITION TIME  TEMP    WIND        PRES    WAVE
                       AIR SEA DIR/SP/G            HT/PER
                 (UTC) (F)     (DEG/KT/KT) (MB)    (FT/S)
W MID LAKE BUOY  2050   49 37   60/  2/  4   N/A     0
DEVILS ISLAND    2100   67      90/  3/  3   N/A
PORT WING        2040   54     360/  6/  8   N/A
SAXON HARBOR     2000   60        CALM       N/A
$$

LMZ867-665-643>646-242200-
LAKE MICHIGAN

STATION/POSITION TIME  TEMP    WIND        PRES    WAVE
                       AIR SEA DIR/SP/G            HT/PER
                 (UTC) (F)     (DEG/KT/KT) (MB)    (FT/S)
CHAMBERS ISLAND  2000   65     200/  6/ 15   N/A
N MID LAKE BUOY  2050   42 36  190/ 12/ 12   N/A     1
NORTHPORT PIER   2000   64     160/  3/  8   N/A
SISTER BAY       2017   67     200/ 11/ 14   N/A
KEWAUNEE LAKESHO 2000   57     190/  6/  8   N/A
SHEBOYGAN LAKESH 2100   47      90/  3/  4   N/A
PORT WASHINGTON  2040   51      40/  9/ 11   N/A
ATWATER BUOY     2000   50 46  360/  4/  6   N/A
MILWAUKEE LAKESH 2000   53      40/ 11/ 12   N/A
S MID LAKE BUOY  2050   46 38   70/ 12/ 14   N/A     0
KENOSHA   LAKESH 2100   54      80/ 10/ 13   N/A
$$

TC  - TEMPERATURE IN CELSIUS
VSB - VISIBILITY IN STATUTE MILES
WCI - WIND CHILL INDEX
HX  - HEAT INDEX



USA.gov is the U.S. government's official web portal to all federal, state and local government web resources and services.